This is the latest recevied weather packets stored in our database for station/object WC4PEM-14. If no packets are shown the sender has not sent any weather packets the latest 10 day(s).
| Time | Temp. | Humidity | Pressure | Rain* | Wind** | Luminosity | Snow |
|---|---|---|---|---|---|---|---|
| 1777984986 | 22.78° C | 79% | 1015.5 hPa | 0 mm | - | - | - |
| 1777984686 | 22.78° C | 80% | 1015.6 hPa | 0 mm | - | - | - |
| 1777984386 | 22.22° C | 80% | 1015.6 hPa | 0 mm | - | - | - |
| 1777984086 | 22.22° C | 82% | 1015.8 hPa | 0 mm | - | - | - |
| 1777983786 | 21.67° C | 83% | 1015.7 hPa | 0 mm | - | - | - |
| 1777983486 | 21.11° C | 84% | 1015.6 hPa | 0 mm | - | - | - |
| 1777983186 | 21.11° C | 85% | 1015.5 hPa | 0 mm | - | - | - |
| 1777982886 | 21.11° C | 85% | 1015.5 hPa | 0 mm | - | - | - |
| 1777982586 | 20.56° C | 85% | 1015.4 hPa | 0 mm | - | - | - |
| 1777982286 | 20.56° C | 85% | 1015.3 hPa | 0 mm | - | - | - |
| 1777981986 | 20.56° C | 86% | 1015.4 hPa | 0 mm | - | - | - |
| 1777981713 | 20° C | 87% | 1015.4 hPa | 0 mm | - | - | - |
| 1777981686 | 20.56° C | 86% | 1015.3 hPa | 0 mm | - | - | - |
| 1777981386 | 20° C | 87% | 1015.4 hPa | 0 mm | - | - | - |
| 1777981096 | 19.44° C | 88% | 1015.2 hPa | 0 mm | - | - | - |
| 1777981086 | 20° C | 88% | 1015.5 hPa | 0 mm | - | - | - |
| 1777980786 | 19.44° C | 88% | 1015.2 hPa | 0 mm | - | - | - |
| 1777980486 | 19.44° C | 88% | 1015 hPa | 0 mm | - | - | - |
| 1777980186 | 19.44° C | 89% | 1014.9 hPa | 0 mm | - | - | - |
| 1777979886 | 18.89° C | 89% | 1014.7 hPa | 0 mm | - | - | - |
| 1777979586 | 18.89° C | 89% | 1014.6 hPa | 0 mm | - | - | - |
| 1777979286 | 18.89° C | 89% | 1014.5 hPa | 0 mm | - | - | - |
| 1777979207 | 18.33° C | 89% | 1014.5 hPa | 0 mm | - | - | - |
| 1777978986 | 18.33° C | 89% | 1014.5 hPa | 0 mm | - | - | - |
| 1777978686 | 18.33° C | 89% | 1014.5 hPa | 0 mm | - | - | - |
* Rain latest hour (hover to see other rain measurements)
** Current wind speed in m/s (hover to see current wind gust speed)